CES4481 ZBAA-ZHCC

Flight info

Callsign CES4481
Flight time 1h 9m
Altitude 34100
Route RUSDO6J RUSDO W45 SQ B208 NOPIN NOP8U
Aircraft A346/H-SDE2E3FGHIJ3J4J5M1RWXY/LB1D1

Departure

Time 2026-05-04 06:13
Airport Beijing Capital International Airport (ZBAA)

Arrival

Time 2026-05-04 07:22
Airport Zhengzhou Xinzheng International Airport (ZHCC)
Time Latitude Longitude Altitude Speed Heading
2026-05-04 05:34 40.06646 116.60570 132 ft 0 kts 83°
2026-05-04 05:55 40.06645 116.60557 132 ft 4 kts 83°
2026-05-04 05:56 40.06642 116.60523 127 ft 3 kts 83°
2026-05-04 05:56 40.06636 116.60494 123 ft 4 kts 58°
2026-05-04 05:56 40.06622 116.60476 127 ft 4 kts 25°
2026-05-04 05:56 40.06599 116.60468 129 ft 4 kts
2026-05-04 05:57 40.06576 116.60469 134 ft 1 kts 353°
2026-05-04 06:01 40.06587 116.60468 128 ft 3 kts 353°
2026-05-04 06:03 40.07154 116.60378 129 ft 7 kts 353°
2026-05-04 06:03 40.07156 116.60378 130 ft 0 kts 353°
2026-05-04 06:05 40.07530 116.60286 128 ft 17 kts 325°
2026-05-04 06:05 40.07629 116.60072 125 ft 13 kts 277°
2026-05-04 06:05 40.07625 116.59972 132 ft 10 kts 273°
2026-05-04 06:06 40.07681 116.59917 129 ft 12 kts 350°
2026-05-04 06:06 40.07775 116.59901 127 ft 15 kts 353°
2026-05-04 06:06 40.07884 116.59884 130 ft 17 kts 353°
2026-05-04 06:06 40.08012 116.59864 129 ft 19 kts 353°
2026-05-04 06:07 40.08150 116.59843 130 ft 21 kts 353°
2026-05-04 06:07 40.08286 116.59821 130 ft 19 kts 353°
2026-05-04 06:07 40.08413 116.59801 130 ft 18 kts 353°
2026-05-04 06:07 40.08538 116.59782 128 ft 17 kts 353°
2026-05-04 06:08 40.08647 116.59765 130 ft 14 kts 353°
2026-05-04 06:08 40.08741 116.59750 130 ft 14 kts 353°
2026-05-04 06:08 40.08830 116.59736 131 ft 9 kts 353°
2026-05-04 06:08 40.08870 116.59720 133 ft 4 kts 322°
2026-05-04 06:09 40.08885 116.59679 130 ft 4 kts 281°
2026-05-04 06:09 40.08886 116.59658 125 ft 0 kts 268°
2026-05-04 06:11 40.08776 116.59510 126 ft 11 kts 173°
2026-05-04 06:11 40.08463 116.59560 131 ft 80 kts 173°
2026-05-04 06:13 39.99937 116.60880 2939 ft 220 kts 176°
2026-05-04 06:14 39.89220 116.62553 6831 ft 283 kts 176°
2026-05-04 06:14 39.87241 116.62856 7613 ft 289 kts 176°
2026-05-04 06:15 39.85225 116.63166 8451 ft 294 kts 175°
2026-05-04 06:15 39.83174 116.63483 9296 ft 300 kts 175°
2026-05-04 06:15 39.81075 116.63804 10120 ft 307 kts 175°
2026-05-04 06:15 39.78920 116.64135 10760 ft 319 kts 175°
2026-05-04 06:16 39.76653 116.64481 11229 ft 337 kts 175°
2026-05-04 06:16 39.74254 116.64843 11686 ft 356 kts 174°
2026-05-04 06:16 39.71727 116.64941 12088 ft 372 kts 189°
2026-05-04 06:16 39.69222 116.63919 12475 ft 386 kts 210°
2026-05-04 06:17 39.67094 116.61771 13003 ft 392 kts 231°
2026-05-04 06:17 39.65661 116.58781 13809 ft 390 kts 251°
2026-05-04 06:17 39.65081 116.55370 14596 ft 387 kts 268°
2026-05-04 06:17 39.64872 116.51871 15387 ft 391 kts 269°
2026-05-04 06:18 39.64672 116.48323 16114 ft 396 kts 269°
2026-05-04 06:18 39.64459 116.44729 16827 ft 402 kts 268°
2026-05-04 06:18 39.64234 116.41089 17552 ft 407 kts 268°
2026-05-04 06:20 39.62491 116.14660 20885 ft 428 kts 267°
2026-05-04 06:20 39.62231 116.10798 21589 ft 431 kts 266°
2026-05-04 06:21 39.61150 115.94932 23836 ft 450 kts 267°
2026-05-04 06:21 39.60874 115.90870 24379 ft 452 kts 268°
2026-05-04 06:22 39.60708 115.86791 24932 ft 452 kts 274°
2026-05-04 06:22 39.61094 115.82747 25493 ft 451 kts 284°
2026-05-04 06:25 39.71316 115.33036 33394 ft 462 kts 252°
2026-05-04 06:25 39.70436 115.30509 33667 ft 465 kts 248°
2026-05-04 06:26 39.68973 115.26736 33991 ft 468 kts 247°
2026-05-04 06:26 39.65966 115.19211 34010 ft 469 kts 247°
2026-05-04 06:27 39.58429 115.00375 33993 ft 469 kts 247°
2026-05-04 06:28 39.55430 114.92866 34010 ft 468 kts 247°
2026-05-04 06:28 39.52423 114.85373 34020 ft 468 kts 247°
2026-05-04 06:29 39.49408 114.77881 34020 ft 468 kts 247°
2026-05-04 06:29 39.46683 114.71128 34024 ft 468 kts 247°
2026-05-04 06:30 39.43663 114.63662 34015 ft 467 kts 247°
2026-05-04 06:30 39.40647 114.56218 34022 ft 467 kts 247°
2026-05-04 06:31 39.37621 114.48773 34018 ft 467 kts 247°
2026-05-04 06:31 39.34582 114.41344 34017 ft 467 kts 247°
2026-05-04 06:33 39.19640 114.14129 34027 ft 485 kts 217°
2026-05-04 06:34 39.13517 114.10377 34035 ft 492 kts 201°
2026-05-04 06:34 39.06920 114.07976 34042 ft 493 kts 199°
2026-05-04 06:36 38.80522 113.98672 34054 ft 492 kts 199°
2026-05-04 06:37 38.73925 113.96339 34055 ft 492 kts 199°
2026-05-04 06:37 38.67319 113.94005 34053 ft 492 kts 199°
2026-05-04 06:38 38.60719 113.91683 34053 ft 492 kts 199°
2026-05-04 06:40 38.34304 113.82438 34045 ft 491 kts 199°
2026-05-04 06:40 38.27713 113.80157 34050 ft 491 kts 199°
2026-05-04 06:41 38.21118 113.77882 34048 ft 491 kts 198°
2026-05-04 06:41 38.14525 113.75612 34037 ft 491 kts 199°
2026-05-04 06:42 38.07931 113.73342 34030 ft 491 kts 199°
2026-05-04 06:44 37.81591 113.64317 34032 ft 490 kts 198°
2026-05-04 06:44 37.75060 113.62090 34035 ft 489 kts 198°
2026-05-04 06:45 37.68490 113.59852 34041 ft 489 kts 198°
2026-05-04 06:45 37.61920 113.57620 34050 ft 489 kts 198°
2026-05-04 06:46 37.55352 113.55392 34052 ft 488 kts 198°
2026-05-04 06:46 37.48785 113.53169 34065 ft 488 kts 198°
2026-05-04 06:48 37.22587 113.44339 34076 ft 486 kts 198°
2026-05-04 06:50 36.96492 113.35606 33976 ft 485 kts 198°
2026-05-04 06:51 36.93236 113.34521 33691 ft 483 kts 198°
2026-05-04 06:51 36.89996 113.33443 33414 ft 481 kts 198°
2026-05-04 06:51 36.86772 113.32371 33138 ft 479 kts 198°
2026-05-04 06:51 36.83563 113.31305 32870 ft 477 kts 198°
2026-05-04 06:52 36.80352 113.30238 32603 ft 477 kts 198°
2026-05-04 06:52 36.77139 113.29170 32339 ft 478 kts 198°
2026-05-04 06:52 36.73921 113.28102 32069 ft 479 kts 198°
2026-05-04 06:52 36.70697 113.27033 31810 ft 479 kts 198°
2026-05-04 06:53 36.67475 113.25966 31557 ft 480 kts 198°
2026-05-04 06:53 36.64239 113.24896 31303 ft 481 kts 198°
2026-05-04 06:53 36.60998 113.23826 31052 ft 482 kts 198°
2026-05-04 06:53 36.57755 113.22755 30813 ft 483 kts 198°
2026-05-04 06:54 36.54498 113.21680 30564 ft 484 kts 198°
2026-05-04 06:54 36.51238 113.20606 30325 ft 485 kts 198°
2026-05-04 06:54 36.47971 113.19530 30087 ft 486 kts 198°
2026-05-04 06:54 36.44696 113.18452 29806 ft 487 kts 198°
2026-05-04 06:55 36.41414 113.17373 29519 ft 488 kts 198°
2026-05-04 06:55 36.38130 113.16294 29239 ft 489 kts 198°
2026-05-04 06:55 36.34837 113.15214 28963 ft 489 kts 198°
2026-05-04 06:55 36.31547 113.14134 28675 ft 489 kts 198°
2026-05-04 06:56 36.28281 113.13152 28394 ft 492 kts 193°
2026-05-04 06:57 36.05033 113.20182 26173 ft 492 kts 161°
2026-05-04 06:58 36.01838 113.21629 25728 ft 488 kts 161°
2026-05-04 06:58 35.98663 113.23056 25287 ft 484 kts 161°
2026-05-04 06:58 35.95508 113.24468 24849 ft 480 kts 161°
2026-05-04 06:58 35.92381 113.25863 24404 ft 476 kts 161°
2026-05-04 06:59 35.89278 113.27246 23959 ft 472 kts 161°
2026-05-04 06:59 35.86202 113.28617 23495 ft 468 kts 161°
2026-05-04 06:59 35.83151 113.29980 23003 ft 464 kts 161°
2026-05-04 06:59 35.80135 113.31332 22548 ft 459 kts 161°
2026-05-04 07:01 35.59852 113.40380 19575 ft 429 kts 161°
2026-05-04 07:01 35.57052 113.41624 19156 ft 426 kts 161°
2026-05-04 07:02 35.54274 113.42856 18712 ft 423 kts 161°
2026-05-04 07:02 35.51520 113.44074 18283 ft 420 kts 161°
2026-05-04 07:02 35.48777 113.45287 17795 ft 417 kts 161°
2026-05-04 07:02 35.46062 113.46488 17364 ft 412 kts 161°
2026-05-04 07:03 35.43376 113.47681 16941 ft 408 kts 160°
2026-05-04 07:03 35.40720 113.48875 16533 ft 404 kts 160°
2026-05-04 07:03 35.38090 113.50060 16120 ft 401 kts 160°
2026-05-04 07:03 35.35485 113.51232 15715 ft 397 kts 160°
2026-05-04 07:04 35.32898 113.52396 15294 ft 395 kts 161°
2026-05-04 07:04 35.30331 113.53549 14899 ft 391 kts 161°
2026-05-04 07:04 35.27782 113.54686 14519 ft 388 kts 161°
2026-05-04 07:04 35.25255 113.55813 14109 ft 385 kts 161°
2026-05-04 07:05 35.22743 113.56933 13695 ft 383 kts 161°
2026-05-04 07:05 35.20249 113.58047 13249 ft 380 kts 161°
2026-05-04 07:05 35.17777 113.59152 12834 ft 377 kts 161°
2026-05-04 07:05 35.15325 113.60247 12425 ft 373 kts 161°
2026-05-04 07:06 35.10487 113.62406 11614 ft 368 kts 161°
2026-05-04 07:06 35.08090 113.63469 11199 ft 365 kts 161°
2026-05-04 07:06 35.05742 113.64496 10838 ft 362 kts 162°
2026-05-04 07:07 35.03412 113.65508 10736 ft 348 kts 162°
2026-05-04 07:08 34.89326 113.71620 10038 ft 279 kts 162°
2026-05-04 07:09 34.87493 113.72413 9811 ft 280 kts 162°
2026-05-04 07:09 34.85643 113.73148 9468 ft 279 kts 166°
2026-05-04 07:09 34.83776 113.73774 9170 ft 278 kts 167°
2026-05-04 07:09 34.81919 113.74386 8873 ft 275 kts 167°
2026-05-04 07:10 34.80076 113.74992 8591 ft 273 kts 167°
2026-05-04 07:10 34.78231 113.75585 8320 ft 276 kts 171°
2026-05-04 07:12 34.68220 113.70167 7430 ft 216 kts 259°
2026-05-04 07:12 34.68173 113.68977 7283 ft 211 kts 278°
2026-05-04 07:12 34.68791 113.66752 6917 ft 205 kts 291°
2026-05-04 07:12 34.69320 113.65176 6634 ft 202 kts 292°
2026-05-04 07:13 34.69838 113.63631 6380 ft 198 kts 291°
2026-05-04 07:13 34.70193 113.62555 6204 ft 196 kts 291°
2026-05-04 07:13 34.70852 113.60543 5858 ft 191 kts 291°
2026-05-04 07:14 34.71475 113.55049 4871 ft 187 kts 238°
2026-05-04 07:14 34.70510 113.53976 4563 ft 190 kts 211°
2026-05-04 07:15 34.69300 113.53323 4263 ft 190 kts 204°
2026-05-04 07:15 34.68094 113.52736 3991 ft 189 kts 203°
2026-05-04 07:15 34.66874 113.52151 3748 ft 189 kts 203°
2026-05-04 07:15 34.65653 113.51563 3492 ft 187 kts 201°
2026-05-04 07:16 34.64382 113.51331 3249 ft 187 kts 173°
2026-05-04 07:16 34.63191 113.51926 3032 ft 188 kts 143°
2026-05-04 07:16 34.62389 113.53180 3016 ft 192 kts 117°
2026-05-04 07:16 34.61856 113.54672 3017 ft 192 kts 114°
2026-05-04 07:17 34.61358 113.56179 2984 ft 191 kts 114°
2026-05-04 07:17 34.60866 113.57685 2985 ft 192 kts 114°
2026-05-04 07:17 34.60366 113.59193 2999 ft 193 kts 113°
2026-05-04 07:17 34.59871 113.60703 2995 ft 193 kts 113°
2026-05-04 07:18 34.59371 113.62217 2995 ft 193 kts 113°
2026-05-04 07:18 34.58864 113.63729 2997 ft 193 kts 114°
2026-05-04 07:18 34.58353 113.65239 2978 ft 193 kts 115°
2026-05-04 07:18 34.57840 113.66743 2979 ft 188 kts 114°
2026-05-04 07:19 34.57365 113.68141 2924 ft 173 kts 114°
2026-05-04 07:19 34.56906 113.69482 2760 ft 169 kts 114°
2026-05-04 07:19 34.56467 113.70769 2487 ft 162 kts 114°
2026-05-04 07:19 34.56039 113.72029 2293 ft 161 kts 115°
2026-05-04 07:20 34.55613 113.73281 2081 ft 160 kts 114°
2026-05-04 07:20 34.55188 113.74533 1865 ft 161 kts 115°
2026-05-04 07:20 34.54762 113.75783 1677 ft 160 kts 114°
2026-05-04 07:20 34.54342 113.77024 1458 ft 158 kts 114°
2026-05-04 07:22 34.51837 113.84412 509 ft 31 kts 112°
2026-05-04 07:22 34.51786 113.84600 508 ft 23 kts 99°
2026-05-04 07:23 34.51781 113.84771 510 ft 15 kts 83°
2026-05-04 07:23 34.51792 113.84861 511 ft 9 kts 80°
2026-05-04 07:23 34.51801 113.84890 512 ft 0 kts 58°
2026-05-04 07:23 34.51802 113.84893 512 ft 1 kts 54°
2026-05-04 07:24 34.51819 113.84912 512 ft 7 kts 38°
2026-05-04 07:24 34.51870 113.84945 513 ft 9 kts 24°
2026-05-04 07:24 34.51938 113.84979 513 ft 12 kts 22°
2026-05-04 07:24 34.52017 113.85018 513 ft 11 kts 22°
2026-05-04 07:25 34.52100 113.85060 513 ft 14 kts 22°
2026-05-04 07:26 34.52502 113.85076 513 ft 2 kts 292°
2026-05-04 07:27 34.52503 113.85074 513 ft 0 kts 292°